Regional Weather Roundup
Issued by NWS

Home | Current Version | Previous Version | Text Only | Print | Product List | Glossary Off
Versions: 1 2 3 4 5 6 7 8 9 10 11 12 13 14 15 16 17 18 19 20 21 22 23 24 25 26 27 28 29 30 31 32 33 34 35 36 37 38 39 40 41 42 43 44 45 46 47 48 49 50

000
ASUS45 KCYS 291210
RWRWY

WYOMING REGIONAL WEATHER ROUNDUP
NATIONAL WEATHER SERVICE CHEYENNE WY
600 AM MDT WED JUL 29 2015

NOTE:  "FAIR" INDICATES FEW OR NO CLOUDS BELOW 12,000 FEET
WITH NO SIGNIFICANT WEATHER AND/OR OBSTRUCTIONS TO VISIBILITY.

WYZ001-291300-
YELLOWSTONE NATIONAL PARK

CITY           SKY/WX    TMP DP  RH WIND       PRES   REMARKS
LK YELLOWSTONE   N/A     28  26  92 CALM      30.48S
6HR MIN TEMP:  28; 6HR MAX TEMP:  32;

W YELLOWSTONE  NOT AVBL

$$
WYZ002>013-054>058-071-098>099-291300-
NORTHERN WYOMING

CITY           SKY/WX    TMP DP  RH WIND       PRES   REMARKS
JACKSON        FAIR      34  32  93 N6        30.44S WCI  29
CODY           FAIR      54  32  43 SW13      30.33R
GREYBULL       FAIR      47  37  68 E5        30.29R
6HR MIN TEMP:  46; 6HR MAX TEMP:  57;

WORLAND        FAIR      44  31  60 S6        30.30R
6HR MIN TEMP:  42; 6HR MAX TEMP:  55;

SHERIDAN       FAIR      51  34  52 SE6       30.27R
6HR MIN TEMP:  50; 6HR MAX TEMP:  59;

BUFFALO        FAIR      55  31  39 SW9       30.33R
6HR MIN TEMP:  48; 6HR MAX TEMP:  56;

GILLETTE       FAIR      53  36  52 SW12      30.29R
6HR MIN TEMP:  50; 6HR MAX TEMP:  58;

HULETT         FAIR      52  36  54 SW9       30.29R
NEWCASTLE      FAIR      45  36  70 NE6       30.32R

$$
WYZ014>020-022>026-101>103-291300-
CENTRAL WYOMING

CITY           SKY/WX    TMP DP  RH WIND       PRES   REMARKS
BIG PINEY      FAIR      35  27  72 CALM      30.44R
6HR MIN TEMP:  32; 6HR MAX TEMP:  45;

PINEDALE       FAIR      32  30  93 CALM      30.44R
DUBOIS         FAIR      34  27  75 W10       30.44R WCI  26
LANDER         FAIR      48  29  47 SW6       30.35S
6HR MIN TEMP:  47; 6HR MAX TEMP:  57;

RIVERTON       FAIR      48  32  53 NW12      30.36S
6HR MIN TEMP:  47; 6HR MAX TEMP:  56;

CASPER         FAIR      37  30  75 NW7       30.35R WCI  32
6HR MIN TEMP:  37; 6HR MAX TEMP:  51;

DOUGLAS        FAIR      41  35  79 NW3       30.35S
6HR MIN TEMP:  41; 6HR MAX TEMP:  50;


$$
WYZ021-027>030-104>119-291300-
SOUTHERN WYOMING

CITY           SKY/WX    TMP DP  RH WIND       PRES   REMARKS
EVANSTON       FAIR      45  24  43 NE3       30.42R
6HR MIN TEMP:  41; 6HR MAX TEMP:  53;

KEMMERER       FAIR      36  30  80 N9        30.44R WCI  29
FORT BRIDGER   SUNNY     46  25  42 S6        30.45R
ROCK SPRINGS   FAIR      47  23  38 CALM      30.40R
6HR MIN TEMP:  45; 6HR MAX TEMP:  55;

DIXON          FAIR      40  23  50 CALM      30.40S
RAWLINS        FAIR      39  21  48 N6        30.38R WCI  35
6HR MIN TEMP:  37; 6HR MAX TEMP:  48;

SARATOGA       FAIR      37  21  52 CALM      30.40S
LARAMIE        FAIR      47  33  58 S10       30.38S
6HR MIN TEMP:  44; 6HR MAX TEMP:  57;

CHEYENNE       FAIR      47  34  60 NW5       30.37R
6HR MIN TEMP:  47; 6HR MAX TEMP:  62;

TORRINGTON     FAIR      48  39  71 W3        30.31R
6HR MIN TEMP:  46; 6HR MAX TEMP:  57;

PINE BLUFFS    PTSUNNY   43  37  81 CALM      30.34R

$$



USA.gov is the U.S. government's official web portal to all federal, state and local government web resources and services.